This is the latest recevied weather packets stored in our database for station/object JH5EWP-13. If no packets are shown the sender has not sent any weather packets the latest 10 day(s).
| Time | Temp. | Humidity | Pressure | Rain* | Wind** | Luminosity | Snow |
|---|---|---|---|---|---|---|---|
| 1777817325 | 16.67° C | 88% | 994.9 hPa | 0.25 mm | - | - | - |
| 1777816425 | 16.67° C | 88% | 994.8 hPa | 0.25 mm | - | - | - |
| 1777815524 | 16.67° C | 88% | 994.8 hPa | 0.25 mm | - | - | - |
| 1777814624 | 16.67° C | 88% | 994.9 hPa | 0.25 mm | - | - | - |
| 1777813726 | 16.67° C | 88% | 994.7 hPa | 0.25 mm | - | - | - |
| 1777812826 | 17.22° C | 89% | 994.5 hPa | 0.51 mm | - | - | - |
| 1777811926 | 17.22° C | 90% | 994 hPa | 0.51 mm | - | - | - |
| 1777811025 | 17.78° C | 87% | 994 hPa | 0.76 mm | - | - | - |
| 1777810126 | 18.33° C | 87% | 994 hPa | 0.76 mm | - | - | - |
| 1777809224 | 19.44° C | 88% | 993.7 hPa | 2.03 mm | - | - | - |
| 1777808326 | 19.44° C | 88% | 993.3 hPa | 3.56 mm | - | - | - |
| 1777807426 | 19.44° C | 87% | 992.9 hPa | 3.81 mm | - | - | - |
| 1777806525 | 20° C | 87% | 992.4 hPa | 4.57 mm | - | - | - |
| 1777805625 | 20° C | 86% | 992.3 hPa | 4.06 mm | - | - | - |
| 1777804724 | 19.44° C | 84% | 992.4 hPa | 3.05 mm | - | - | - |
| 1777803826 | 19.44° C | 83% | 992.2 hPa | 2.79 mm | - | - | - |
| 1777802926 | 19.44° C | 82% | 992.2 hPa | 4.06 mm | - | - | - |
| 1777802026 | 20° C | 81% | 992 hPa | 4.57 mm | - | - | - |
| 1777801126 | 20.56° C | 78% | 991.9 hPa | 4.06 mm | - | - | - |
| 1777800225 | 20.56° C | 78% | 991.6 hPa | 3.81 mm | - | - | - |
| 1777799325 | 21.67° C | 75% | 991.4 hPa | 2.54 mm | - | - | - |
| 1777798425 | 22.22° C | 73% | 990.6 hPa | 1.27 mm | - | - | - |
| 1777797525 | 22.22° C | 72% | 991 hPa | 1.78 mm | - | - | - |
| 1777796625 | 22.22° C | 72% | 991 hPa | 2.03 mm | - | - | - |
| 1777795725 | 21.67° C | 73% | 991.3 hPa | 1.78 mm | - | - | - |
* Rain latest hour (hover to see other rain measurements)
** Current wind speed in m/s (hover to see current wind gust speed)